User: anonymous   Login
Location: Unspecified
(0.0000°N, 0.0000°E)
Time: 00:55:55
(UTC+00:00)
Language:

Himawari 2 - Orbit

View from above orbital plane
View from above orbital plane
View from above satellite
View from above satellite

Ground track
Ground track

The orbit data is extracted from the following two-line orbital elements,

1 12677U 81076A   21022.99781188  .00000056  00000-0  00000-0 0  9994
2 12677  12.0780 321.4746 0008192 293.3299 254.5209  0.99553132112601
Epoch (UTC): 22 January 2021 23:56:50
Eccentricity: 0.0008192
inclination: 12.0780°
perigee height: 35954 km
apogee height: 36023 km
right ascension of ascending node: 321.4746°
argument of perigee: 293.3299°
revolutions per day: 0.99553132
mean anomaly at epoch: 254.5209°
orbit number at epoch: 11260

The dashed part of the orbit path shows where the satellite is in the earth's shadow,  

DLR